Location: Banios
(43.0451°N, 0.2335°E)
Time: 10:58:42
(UTC+00:00)

Envisat - Pass Details

Date: 14 December 2021
Orbit: 764 x 766 km, 98.2° (Epoch: 20 January)

Event Time Altitude Azimuth Distance (km) Brightness Sun altitude
Rises 17:15:50 0° 205° (SSW) 3,219 7.1 -9.1°
Reaches altitude 10° 17:18:46 10° 223° (SW) 2,298 6.7 -9.6°
Maximum altitude 17:22:21 19° 268° (W) 1,754 5.9 -10.2°
Drops below altitude 10° 17:25:56 10° 314° (NW) 2,310 5.8 -10.8°
Sets 17:28:55 0° 332° (NNW) 3,242 6.3 -11.3°
